• In Österreich
  • Länderverzeichnis
  • Für 7 Tage
  • Wassertemperatur
  • Satellitenkarten
  • Wetterkarte
  • News
  • Widgets
  • user-avatar
    Anmelden

    Stündliche Wetter Myshenki

    Heute, 20 Juli, Freitag

    Zeit Temperatur Niederschläge Wind Luftdruck Luftfeuchtigkeit
    00:00 +18°C° 0 mm 3 m/S 740 mmHg 95%
    01:00 +18°C° 0 mm 3 m/S 740 mmHg 96%
    02:00 +18°C° 0 mm 3 m/S 740 mmHg 97%
    03:00 +18°C° 0 mm 3 m/S 740 mmHg 96%
    04:00 +18°C° 0 mm 4 m/S 740 mmHg 95%
    05:00 +19°C° 0 mm 4 m/S 739 mmHg 94%
    06:00 +19°C° 0,1 mm 4 m/S 740 mmHg 94%
    07:00 +19°C° 0,1 mm 4 m/S 740 mmHg 93%
    08:00 +19°C° 0,1 mm 4 m/S 740 mmHg 93%
    09:00 +20°C° 0,1 mm 4 m/S 740 mmHg 91%
    10:00 +21°C° 0,1 mm 4 m/S 740 mmHg 90%
    11:00 +21°C° 0,1 mm 4 m/S 740 mmHg 88%
    12:00 +22°C° 0,5 mm 4 m/S 740 mmHg 88%
    13:00 +22°C° 0,5 mm 4 m/S 740 mmHg 88%
    14:00 +23°C° 0,5 mm 4 m/S 740 mmHg 87%
    15:00 +23°C° 0,8 mm 4 m/S 740 mmHg 87%
    16:00 +23°C° 0,8 mm 4 m/S 740 mmHg 88%
    17:00 +23°C° 0,8 mm 4 m/S 739 mmHg 88%
    18:00 +23°C° 0,4 mm 4 m/S 739 mmHg 89%
    19:00 +22°C° 0,4 mm 4 m/S 739 mmHg 90%
    20:00 +21°C° 0,4 mm 4 m/S 740 mmHg 92%
    21:00 +21°C° 0,6 mm 4 m/S 740 mmHg 93%
    22:00 +20°C° 0,6 mm 4 m/S 740 mmHg 94%
    23:00 +20°C° 0,6 mm 4 m/S 740 mmHg 95%

    Morgen, 21 Juli, Samstag

    Zeit Temperatur Niederschläge Wind Luftdruck Luftfeuchtigkeit
    00:00 +20°C° 0,1 mm 4 m/S 740 mmHg 96%
    01:00 +19°C° 0,1 mm 4 m/S 740 mmHg 96%
    02:00 +19°C° 0,1 mm 4 m/S 740 mmHg 97%
    03:00 +19°C° 0 mm 4 m/S 740 mmHg 97%
    04:00 +19°C° 0 mm 4 m/S 740 mmHg 97%
    05:00 +19°C° 0 mm 4 m/S 740 mmHg 97%
    06:00 +20°C° 0 mm 4 m/S 740 mmHg 96%
    07:00 +20°C° 0 mm 4 m/S 741 mmHg 95%
    08:00 +20°C° 0 mm 4 m/S 741 mmHg 94%
    09:00 +21°C° 0 mm 4 m/S 741 mmHg 92%
    10:00 +21°C° 0 mm 4 m/S 741 mmHg 89%
    11:00 +22°C° 0 mm 4 m/S 741 mmHg 87%
    12:00 +23°C° 0,1 mm 4 m/S 741 mmHg 84%
    13:00 +23°C° 0,1 mm 5 m/S 741 mmHg 82%
    14:00 +25°C° 0,1 mm 5 m/S 741 mmHg 79%
    15:00 +25°C° 0,5 mm 5 m/S 741 mmHg 80%
    16:00 +25°C° 0,5 mm 4 m/S 741 mmHg 82%
    17:00 +25°C° 0,5 mm 4 m/S 741 mmHg 83%
    18:00 +23°C° 0,1 mm 4 m/S 741 mmHg 86%
    19:00 +22°C° 0,1 mm 4 m/S 741 mmHg 89%
    20:00 +21°C° 0,1 mm 4 m/S 741 mmHg 92%
    21:00 +20°C° 0 mm 3 m/S 741 mmHg 93%
    22:00 +19°C° 0 mm 3 m/S 742 mmHg 95%
    23:00 +18°C° 0 mm 3 m/S 742 mmHg 96%

    übermorgen, 22 Juli, Sonntag

    Zeit Temperatur Niederschläge Wind Luftdruck Luftfeuchtigkeit
    00:00 +18°C° 0,1 mm 3 m/S 742 mmHg 97%
    01:00 +17°C° 0,1 mm 3 m/S 741 mmHg 97%
    02:00 +17°C° 0,1 mm 3 m/S 741 mmHg 98%
    03:00 +17°C° 0 mm 3 m/S 741 mmHg 97%
    04:00 +18°C° 0 mm 3 m/S 741 mmHg 96%
    05:00 +18°C° 0 mm 3 m/S 741 mmHg 95%
    06:00 +18°C° 0 mm 3 m/S 741 mmHg 94%
    07:00 +19°C° 0 mm 3 m/S 741 mmHg 93%
    08:00 +19°C° 0 mm 3 m/S 741 mmHg 92%
    09:00 +20°C° 0 mm 3 m/S 742 mmHg 91%
    10:00 +20°C° 0 mm 3 m/S 742 mmHg 91%
    11:00 +21°C° 0 mm 4 m/S 742 mmHg 90%
    12:00 +21°C° 0,1 mm 4 m/S 742 mmHg 89%
    13:00 +21°C° 0,1 mm 4 m/S 742 mmHg 89%
    14:00 +21°C° 0,1 mm 4 m/S 742 mmHg 88%
    15:00 +21°C° 0,1 mm 4 m/S 742 mmHg 88%
    16:00 +21°C° 0,1 mm 4 m/S 742 mmHg 89%
    17:00 +21°C° 0,1 mm 4 m/S 742 mmHg 89%
    18:00 +20°C° 0,1 mm 4 m/S 742 mmHg 90%
    19:00 +20°C° 0,1 mm 3 m/S 742 mmHg 92%
    20:00 +19°C° 0,1 mm 3 m/S 742 mmHg 93%
    21:00 +19°C° 0 mm 3 m/S 742 mmHg 93%
    22:00 +19°C° 0 mm 3 m/S 742 mmHg 93%
    23:00 +19°C° 0 mm 3 m/S 742 mmHg 93%

    23 Juli, Montag

    Zeit Temperatur Niederschläge Wind Luftdruck Luftfeuchtigkeit
    00:00 +19°C° 0 mm 3 m/S 742 mmHg 94%
    01:00 +19°C° 0 mm 3 m/S 741 mmHg 95%
    02:00 +18°C° 0 mm 3 m/S 741 mmHg 96%
    03:00 +18°C° 0 mm 3 m/S 741 mmHg 96%
    04:00 +18°C° 0 mm 3 m/S 741 mmHg 96%
    05:00 +19°C° 0 mm 4 m/S 741 mmHg 95%
    06:00 +19°C° 0,1 mm 4 m/S 741 mmHg 95%
    07:00 +19°C° 0,1 mm 4 m/S 741 mmHg 95%
    08:00 +19°C° 0,1 mm 4 m/S 742 mmHg 94%
    09:00 +19°C° 0,1 mm 4 m/S 742 mmHg 93%
    10:00 +20°C° 0,1 mm 4 m/S 742 mmHg 93%
    11:00 +20°C° 0,1 mm 4 m/S 742 mmHg 92%
    12:00 +20°C° 0,1 mm 4 m/S 742 mmHg 92%
    13:00 +20°C° 0,1 mm 4 m/S 742 mmHg 92%
    14:00 +20°C° 0,1 mm 3 m/S 742 mmHg 93%
    15:00 +20°C° 0,1 mm 3 m/S 742 mmHg 92%
    16:00 +20°C° 0,1 mm 3 m/S 742 mmHg 92%
    17:00 +21°C° 0,1 mm 3 m/S 742 mmHg 92%
    18:00 +20°C° 0,1 mm 3 m/S 742 mmHg 93%
    19:00 +20°C° 0,1 mm 3 m/S 742 mmHg 93%
    20:00 +20°C° 0,1 mm 3 m/S 742 mmHg 94%
    21:00 +20°C° 0,1 mm 3 m/S 742 mmHg 95%
    22:00 +20°C° 0,1 mm 3 m/S 742 mmHg 95%
    23:00 +20°C° 0,1 mm 3 m/S 742 mmHg 96%

    24 Juli, Dienstag

    Zeit Temperatur Niederschläge Wind Luftdruck Luftfeuchtigkeit
    00:00 +19°C° 0 mm 3 m/S 742 mmHg 96%
    01:00 +19°C° 0 mm 3 m/S 741 mmHg 97%
    02:00 +19°C° 0 mm 3 m/S 741 mmHg 97%
    03:00 +19°C° 0 mm 3 m/S 742 mmHg 97%
    04:00 +19°C° 0 mm 3 m/S 742 mmHg 97%
    05:00 +19°C° 0 mm 4 m/S 742 mmHg 97%
    06:00 +19°C° 0,1 mm 3 m/S 742 mmHg 96%
    07:00 +20°C° 0,1 mm 3 m/S 742 mmHg 96%
    08:00 +20°C° 0,1 mm 3 m/S 743 mmHg 95%
    09:00 +20°C° 0 mm 3 m/S 743 mmHg 94%
    10:00 +21°C° 0 mm 3 m/S 743 mmHg 93%
    11:00 +21°C° 0 mm 3 m/S 743 mmHg 91%
    12:00 +22°C° 0,1 mm 3 m/S 744 mmHg 89%
    13:00 +23°C° 0,1 mm 4 m/S 744 mmHg 86%
    14:00 +25°C° 0,1 mm 4 m/S 744 mmHg 83%
    15:00 +25°C° 0,1 mm 4 m/S 744 mmHg 82%
    16:00 +25°C° 0,1 mm 3 m/S 744 mmHg 80%
    17:00 +25°C° 0,1 mm 3 m/S 744 mmHg 79%
    18:00 +24°C° 0 mm 3 m/S 744 mmHg 84%
    19:00 +23°C° 0 mm 2 m/S 744 mmHg 88%
    20:00 +21°C° 0 mm 2 m/S 744 mmHg 93%
    21:00 +21°C° 0 mm 2 m/S 744 mmHg 94%
    22:00 +20°C° 0 mm 2 m/S 745 mmHg 95%
    23:00 +20°C° 0 mm 2 m/S 745 mmHg 96%

    25 Juli, Mittwoch

    Zeit Temperatur Niederschläge Wind Luftdruck Luftfeuchtigkeit
    00:00 +19°C° 0 mm 2 m/S 745 mmHg 97%
    01:00 +19°C° 0 mm 2 m/S 745 mmHg 97%
    02:00 +19°C° 0 mm 2 m/S 745 mmHg 98%
    03:00 +19°C° 0 mm 2 m/S 745 mmHg 98%
    04:00 +19°C° 0 mm 2 m/S 746 mmHg 97%
    05:00 +20°C° 0 mm 2 m/S 746 mmHg 97%
    06:00 +21°C° 0 mm 2 m/S 746 mmHg 92%
    07:00 +22°C° 0 mm 3 m/S 746 mmHg 87%
    08:00 +25°C° 0 mm 3 m/S 746 mmHg 82%
    09:00 +26°C° 0,7 mm 3 m/S 746 mmHg 79%
    10:00 +26°C° 0,7 mm 3 m/S 747 mmHg 76%
    11:00 +27°C° 0,7 mm 3 m/S 747 mmHg 74%
    12:00 +27°C° 1 mm 3 m/S 747 mmHg 74%
    13:00 +27°C° 1 mm 3 m/S 747 mmHg 74%
    14:00 +27°C° 1 mm 3 m/S 747 mmHg 73%
    15:00 +27°C° 0,6 mm 3 m/S 747 mmHg 76%
    16:00 +27°C° 0,6 mm 3 m/S 747 mmHg 78%
    17:00 +27°C° 0,6 mm 2 m/S 747 mmHg 81%
    18:00 +25°C° 0,1 mm 2 m/S 747 mmHg 82%
    19:00 +23°C° 0,1 mm 2 m/S 747 mmHg 84%
    20:00 +21°C° 0,1 mm 2 m/S 747 mmHg 86%
    21:00 +20°C° 0 mm 2 m/S 747 mmHg 85%
    22:00 +19°C° 0 mm 2 m/S 747 mmHg 84%
    23:00 +18°C° 0 mm 2 m/S 747 mmHg 83%
    Mehr zeigen